Springfield, VT

10:07 PM EDT on April 29, 2017 (GMT -0400)
Hartness State

Weather History for KVSF - April, 2014

Change the Weather History Date:

Tuesday, April 1, 2014

  Actual Average Record
Temperature  
Mean Temperature 42 °F 38 °F  
Max Temperature 53 °F 49 °F 67 °F (2016)
Min Temperature 30 °F 27 °F 15 °F (2003)
Degree Days  
Heating Degree Days 23 27  
Month to date heating degree days 23 27  
Since 1 July heating degree days 7006 6507  
Cooling Degree Days 0 0  
Month to date cooling degree days 0 0  
Year to date cooling degree days 0 0  
Moisture  
Dew Point 25 °F    
Average Humidity 60    
Maximum Humidity 82    
Minimum Humidity 38    
Precipitation  
Precipitation 0.00 in 0.15 in 0.54 in (2017)
Month to date precipitation 0.00 0.15  
Year to date precipitation 5.71 9.06  
Sea Level Pressure  
Sea Level Pressure 30.09 in    
Wind  
Wind Speed 3 mph (NE)    
Max Wind Speed 14 mph    
Max Gust Speed 22 mph    
Visibility 10 miles    
Events      
T = Trace of Precipitation, MM = Missing Value Source: NWS Daily Summary

Daily Weather History Graph

Daily Weather History Graph

Search for Another Location

Airport or City:

Trip Planner

Search our weather history database for the weather conditions in past years. The results will help you decide how hot, cold, wet, or windy it might be!

Date:

Astronomy

Apr. 01, 2014 Rise Set
Actual Time 6:31 AM EDT 7:16 PM EDT
Civil Twilight 6:03 AM EDT 7:45 PM EDT
Nautical Twilight 5:28 AM EDT 8:19 PM EDT
Astronomical Twilight 4:53 AM EDT 8:55 PM EDT
Moon 7:29 AM EDT (4/1) 9:40 PM EDT (4/1)
Length of Visible Light 13h 42m
Length of Day
12h 44m
Waxing Crescent, 4% of the Moon is Illuminated
Apr 1
Waxing Crescent
Apr 7
First Quarter
Apr 15
Full
Apr 22
Last Quarter
Apr 29
New

Hourly Weather History & Observations

Time (EDT) Temp. Windchill Dew Point Humidity Pressure Visibility Wind Dir Wind Speed Gust Speed Precip Events Conditions
12:54 AM 34.0 °F 26.6 °F 23.0 °F 64% 30.11 in 10.0 mi NNW 9.2 mph 17.3 mph N/A   Partly Cloudy
1:46 AM 33.1 °F 30.0 °F 23.0 °F 66% 30.10 in 10.0 mi Variable 3.5 mph - N/A   Mostly Cloudy
1:54 AM 33.1 °F 26.1 °F 23.0 °F 66% 30.12 in 10.0 mi North 8.1 mph 21.9 mph N/A   Overcast
2:54 AM 32.0 °F - 21.9 °F 66% 30.11 in 10.0 mi Calm Calm - N/A   Scattered Clouds
3:54 AM 32.0 °F 27.5 °F 21.9 °F 66% 30.12 in 10.0 mi Variable 4.6 mph - N/A   Clear
4:54 AM 30.9 °F 22.8 °F 21.0 °F 67% 30.12 in 10.0 mi North 9.2 mph - N/A   Clear
5:54 AM 30.9 °F 24.3 °F 21.0 °F 67% 30.12 in 10.0 mi Variable 6.9 mph - N/A   Clear
6:54 AM 30.9 °F - 21.0 °F 67% 30.14 in 10.0 mi Calm Calm - N/A   Clear
7:54 AM 32.0 °F 26.4 °F 21.0 °F 64% 30.14 in 10.0 mi North 5.8 mph - N/A   Clear
8:54 AM 35.1 °F 31.0 °F 21.0 °F 57% 30.14 in 10.0 mi NNE 4.6 mph - N/A   Clear
9:54 AM 37.0 °F 31.0 °F 21.9 °F 54% 30.14 in 10.0 mi NNE 8.1 mph - N/A   Clear
10:54 AM 37.9 °F 32.1 °F 23.0 °F 55% 30.12 in 10.0 mi ENE 8.1 mph - N/A   Clear
11:54 AM 41.0 °F 39.0 °F 24.1 °F 51% 30.10 in 10.0 mi East 3.5 mph - N/A   Clear
12:54 PM 44.1 °F 42.5 °F 24.1 °F 45% 30.08 in 10.0 mi SSE 3.5 mph - N/A   Clear
1:54 PM 46.9 °F - 25.0 °F 42% 30.06 in 10.0 mi East 3.5 mph - N/A   Clear
2:54 PM 48.9 °F - 26.1 °F 41% 30.04 in 10.0 mi ESE 4.6 mph - N/A   Clear
3:54 PM 52.0 °F - 26.1 °F 37% 30.03 in 10.0 mi Calm Calm - N/A   Clear
4:54 PM 51.1 °F - 27.0 °F 39% 30.02 in 10.0 mi East 3.5 mph - N/A   Clear
5:54 PM 48.0 °F - 26.1 °F 42% 30.02 in 10.0 mi ENE 4.6 mph - N/A   Clear
6:54 PM 46.0 °F - 28.0 °F 50% 30.02 in 10.0 mi Calm Calm - N/A   Clear
7:54 PM 39.0 °F - 30.0 °F 70% 30.04 in 10.0 mi Calm Calm - N/A   Clear
8:54 PM 36.0 °F - 30.0 °F 79% 30.06 in 10.0 mi Calm Calm - N/A   Clear
9:54 PM 36.0 °F - 30.0 °F 79% 30.08 in 10.0 mi Calm Calm - N/A   Clear
10:54 PM 35.1 °F - 30.0 °F 82% 30.08 in 10.0 mi Calm Calm - N/A   Clear
11:54 PM 33.1 °F - 28.9 °F 85% 30.09 in 10.0 mi Calm Calm - N/A   Clear